Theta_e
288 280 277 279 282 283 282 280 278 282 286 284 283 283 285 288 289 288 289 290 290 289 292 293 295 295 296 297 296 296 297 300 312 318 322 324 322 321 322 323 323 324 325 324
282 278 283 286 286 284 282 279 275 282 286 284 282 282 286 288 287 288 289 287 289 290 291 294 294 294 297 297 298 298 299 299 301 310 317 321 324 323 322 322 322 324 324 321
279 283 287 285 282 281 280 278 278 278 282 283 282 277 281 285 287 289 290 290 290 290 292 295 297 298 298 298 299 300 301 301 300 301 305 315 321 323 320 320 320 322 323 317
282 285 284 281 281 282 278 283 283 281 275 267 280 268 278 283 284 287 289 287 287 289 293 295 297 297 297 298 298 300 301 302 303 302 301 307 311 313 319 319 320 321 321 315
281 282 281 280 282 284 279 284 282 281 274 270 270 270 276 282 281 283 286 288 287 289 291 293 293 296 296 296 296 297 300 301 303 303 302 302 310 315 317 319 319 319 316 312
282 286 284 282 285 285 286 283 281 280 272 268 270 270 273 276 280 283 286 287 288 289 291 292 294 295 295 296 297 297 298 301 303 303 302 301 301 307 314 316 317 313 309 305
281 282 284 286 280 284 282 276 263 263 262 265 275 268 274 280 283 284 285 286 287 289 290 291 292 293 293 294 296 296 297 297 299 300 301 302 302 303 309 312 313 308 305 303
272 270 281 285 281 278 278 277 265 258 263 267 276 267 275 284 285 286 286 286 288 289 290 291 291 291 292 293 295 296 295 295 296 297 298 299 301 302 307 312 312 310 306 303
273 275 282 284 284 282 279 275 280 265 263 264 268 274 281 283 284 285 285 286 287 288 289 289 290 290 292 293 293 294 294 294 295 296 296 298 301 302 306 311 310 310 307 302
278 270 280 281 283 283 280 282 270 267 263 258 266 268 273 278 280 283 283 283 286 288 287 288 289 292 293 292 293 293 294 293 295 296 296 296 298 301 307 309 308 306 304 298
280 275 275 280 277 276 277 276 277 274 270 264 263 270 278 277 279 282 282 285 286 287 287 287 290 291 291 292 292 291 291 293 293 295 296 296 297 300 304 308 306 303 298 297
281 276 268 274 279 281 280 278 278 267 266 271 270 271 283 283 283 283 284 285 286 287 286 288 289 289 290 289 289 289 290 291 293 295 296 296 296 298 302 307 304 299 296 295
281 269 261 268 274 281 277 278 279 277 274 272 265 271 282 283 283 284 283 284 286 286 286 288 288 288 288 287 288 288 290 290 294 298 297 297 297 298 305 300 296 295 293 293
284 272 269 267 270 274 274 275 277 275 263 271 272 274 278 280 280 282 283 285 285 286 287 287 286 287 287 286 287 287 288 292 298 297 297 297 298 301 296 294 293 292 291 290
278 268 272 274 275 275 275 275 275 273 274 269 273 273 277 279 280 282 284 285 284 285 285 285 286 285 285 286 286 287 288 293 298 299 298 297 295 293 292 290 290 289 289 288
279 265 269 264 272 274 272 274 275 275 275 274 274 274 280 281 282 283 283 283 283 283 284 285 284 284 284 285 285 286 287 291 296 295 293 292 291 290 289 289 287 287 286 285
277 269 263 262 269 265 264 269 273 273 274 274 271 277 279 280 282 281 280 282 282 283 284 283 283 284 284 285 285 285 286 290 290 292 291 291 289 288 288 287 286 286 285 285
272 270 265 261 261 257 272 276 276 275 276 277 277 279 280 281 281 282 285 282 283 284 283 283 284 284 284 285 285 286 286 286 285 285 287 288 286 285 286 286 285 285 285 285
276 273 261 260 254 266 272 277 276 274 274 279 278 280 280 280 280 282 284 284 284 284 284 284 285 284 285 285 285 285 285 285 285 284 284 285 285 285 285 285 284 285 285 285
279 277 267 258 256 257 270 278 278 278 268 279 280 279 277 278 275 280 283 284 284 285 285 284 285 285 284 284 285 284 284 284 284 284 284 285 286 285 285 285 285 285 286 285
271 271 270 262 258 264 275 278 279 266 273 280 280 279 278 276 278 281 284 284 285 284 284 285 285 284 284 284 284 283 283 283 284 284 285 284 285 285 285 285 285 285 285 285
268 265 265 266 259 263 278 277 274 278 280 281 279 279 279 279 280 282 283 283 283 283 283 285 284 284 284 285 284 283 282 284 285 285 285 284 284 285 285 285 285 285 285 284
269 271 267 270 270 277 279 278 281 281 280 279 279 279 280 279 280 282 282 282 282 282 283 284 284 284 284 284 285 283 284 285 285 285 284 284 285 285 286 286 285 285 285 283
273 276 272 274 277 278 279 281 281 281 280 282 280 280 278 279 280 280 281 281 281 281 281 283 284 283 283 284 284 284 284 284 285 285 284 285 285 285 285 285 285 284 282 281
275 276 273 273 277 278 279 279 280 280 279 279 280 280 279 280 280 280 280 280 280 280 281 282 282 282 282 283 283 284 285 286 284 284 283 283 283 283 281 281 281 281 279 282
275 274 274 274 277 277 277 278 279 278 278 279 279 278 279 280 280 280 279 279 279 279 278 280 280 281 281 282 282 282 283 283 284 281 281 280 280 280 280 280 279 285 286 286
Wind_Speed
1 6 2 2 3 2 3 4 6 9 12 11 8 18 22 20 16 19 16 14 14 12 14 9 7 6 7 6 7 8 6 8 4 4 8 10 14 13 13 12 17 20 19 17
6 1 4 2 3 3 4 6 8 8 3 11 18 25 21 17 10 10 13 11 14 11 9 6 4 1 3 4 6 8 8 8 6 4 4 9 8 11 13 14 18 19 19 17
1 1 3 1 4 4 4 5 4 6 6 6 12 11 3 3 8 9 11 9 9 7 7 5 4 6 5 6 7 6 8 8 7 8 4 5 11 9 10 13 14 16 19 17
4 2 1 3 3 3 4 1 4 6 6 2 6 11 7 7 9 8 12 8 8 7 6 5 7 7 7 8 8 8 8 9 8 7 6 8 9 13 10 15 14 14 18 19
4 3 1 2 4 1 8 6 8 10 4 4 6 2 11 6 9 7 9 8 8 6 3 4 5 6 8 8 8 8 10 10 13 11 9 7 10 10 10 13 22 17 15 17
7 2 5 5 4 5 5 5 10 2 4 1 5 6 11 5 6 6 5 4 5 7 7 8 6 6 6 8 13 13 10 14 12 11 10 9 10 12 11 9 14 12 12 12
4 4 3 3 3 3 5 6 6 9 5 8 8 4 15 11 13 6 7 6 7 7 9 7 8 10 14 19 18 16 17 21 19 17 16 15 15 13 17 15 11 15 12 12
2 7 7 5 4 2 1 6 7 7 5 10 8 9 10 12 10 8 6 6 6 14 7 11 8 12 20 20 19 18 20 22 19 18 22 22 24 14 15 17 9 15 17 16
2 6 2 4 3 6 1 3 4 1 3 3 6 8 16 13 7 7 8 8 13 11 15 9 12 18 18 18 21 21 20 21 22 24 21 18 17 16 15 17 15 11 17 14
2 4 3 4 4 5 6 1 4 3 5 7 8 9 16 15 9 9 11 11 17 15 9 12 15 19 20 20 19 21 20 22 22 22 20 21 20 18 16 14 18 17 9 19
2 3 6 3 6 8 2 2 3 2 4 5 7 11 8 8 9 17 12 19 26 20 16 13 17 19 19 19 19 18 20 20 21 21 21 22 20 16 14 16 17 17 18 17
3 4 4 11 3 3 6 8 7 6 8 6 4 23 15 19 13 8 28 24 23 24 13 17 19 21 20 18 17 19 19 19 21 22 22 23 21 18 18 18 19 18 19 19
5 2 4 11 7 4 4 4 5 2 1 17 4 17 4 15 29 25 23 24 23 13 17 19 23 21 21 20 17 20 19 20 22 24 23 21 20 19 18 17 18 19 18 16
7 3 8 9 7 2 6 6 5 5 3 18 20 34 36 28 27 26 26 22 13 18 19 23 21 18 19 19 16 19 18 19 12 3 12 18 18 16 18 18 18 17 17 17
6 6 5 9 9 11 18 22 20 20 24 12 30 25 31 28 27 28 19 17 18 23 24 22 19 18 16 16 16 15 15 16 5 7 10 13 17 19 19 19 19 18 16 14
4 5 2 5 8 10 18 21 19 21 19 19 29 32 26 23 15 20 22 16 21 23 24 19 18 17 16 16 15 13 13 11 8 9 14 15 18 19 19 19 19 20 17 14
8 4 3 7 4 9 13 13 7 4 6 8 8 13 7 19 19 22 17 14 20 23 21 19 17 15 14 14 12 10 9 7 10 5 12 15 16 18 17 18 19 17 19 17
7 6 3 5 6 3 9 5 6 13 11 14 11 13 11 14 19 20 3 15 19 20 19 17 15 14 13 11 9 7 7 7 9 8 9 12 16 17 16 17 17 16 16 17
3 5 0 2 4 13 8 3 4 4 9 6 6 8 14 11 12 5 10 14 13 16 15 13 12 12 11 11 9 7 8 7 10 11 10 10 15 17 18 16 17 15 17 16
3 4 6 3 3 8 7 3 2 5 8 5 3 7 7 12 11 8 18 15 15 14 13 14 13 9 11 11 8 10 9 10 11 11 11 10 12 15 17 16 17 12 14 14
5 3 12 4 5 13 14 10 2 7 7 5 3 7 5 6 5 16 13 15 10 12 14 14 11 10 11 9 9 11 10 12 10 11 12 12 13 15 15 15 14 14 15 15
11 11 6 5 3 15 9 6 10 8 3 4 4 4 6 8 11 9 9 11 13 14 15 15 11 11 11 10 10 12 11 9 12 12 14 14 13 11 12 17 14 14 14 15
6 11 11 15 14 4 10 7 8 0 4 5 4 5 5 8 6 9 9 9 9 10 10 11 10 10 11 11 10 12 10 10 11 14 14 14 14 12 13 15 14 12 11 10
6 7 4 3 10 20 13 12 10 7 11 12 7 6 3 6 6 7 6 7 6 8 8 8 10 12 12 11 11 10 10 9 12 13 13 12 13 13 12 9 8 9 8 7
6 13 7 7 12 11 14 10 12 10 9 8 3 6 4 4 5 4 5 5 5 5 5 6 7 8 9 9 10 9 9 11 13 12 11 11 10 10 9 7 5 6 3 5
8 9 10 11 9 6 4 5 7 5 5 4 5 4 3 3 5 3 3 3 3 4 5 5 5 6 6 7 9 8 8 7 9 8 6 5 6 6 6 7 6 10 8 8
Wind_Direction
339 57 101 138 102 166 219 241 259 275 285 321 278 288 292 288 283 281 280 277 276 258 258 246 259 265 258 273 285 283 279 271 253 248 248 227 212 196 183 191 188 194 187 177
23 126 181 190 212 241 256 277 272 281 22 337 296 293 283 277 267 259 266 269 274 281 286 268 254 295 306 277 291 299 289 264 255 239 250 239 234 229 195 190 190 186 191 177
181 262 187 270 314 306 281 242 282 263 349 279 323 297 333 275 295 293 284 272 292 274 243 244 242 235 251 270 262 257 273 280 277 271 265 262 248 237 196 196 199 189 183 177
252 228 253 304 284 255 280 322 316 325 40 277 79 288 276 281 278 268 279 293 282 321 319 304 311 309 307 293 291 271 255 261 262 261 258 244 239 234 235 190 196 182 178 175
243 185 179 277 229 144 240 348 303 289 195 64 323 41 269 273 278 284 292 292 337 325 359 333 304 264 279 286 269 268 271 262 260 246 239 239 254 245 233 237 180 178 166 166
236 161 174 206 312 239 295 326 309 333 118 230 239 131 278 280 219 283 296 322 297 307 296 273 268 305 308 307 298 284 277 275 270 259 241 230 237 258 236 246 185 160 161 157
292 206 172 113 313 13 38 42 347 346 354 223 185 25 242 277 281 240 255 278 292 311 304 305 299 306 309 303 290 280 271 270 266 255 260 251 250 249 249 214 220 170 162 159
149 326 167 167 168 230 317 132 147 255 274 280 294 230 249 233 273 279 239 266 306 313 273 290 277 298 298 292 283 277 276 272 260 258 258 255 254 244 239 221 205 185 168 167
122 271 102 142 121 128 157 187 168 157 242 351 249 284 292 273 274 287 315 308 310 284 300 285 286 293 293 291 291 283 277 268 264 260 257 252 248 232 232 207 178 233 170 163
219 310 274 115 73 258 179 159 61 5 291 295 271 269 253 292 282 284 297 299 306 295 276 272 287 303 301 296 288 286 273 269 261 253 244 245 241 236 231 195 187 157 203 154
134 112 290 52 190 184 105 251 191 172 172 221 291 278 221 251 268 294 287 305 308 303 281 285 294 303 294 292 290 286 281 271 263 251 242 235 233 226 233 190 178 166 156 165
205 148 264 233 239 195 190 203 166 145 262 244 233 272 290 285 276 305 307 301 299 298 290 297 300 311 301 300 298 295 282 274 261 249 233 223 220 217 225 188 170 156 161 166
179 258 350 340 2 338 221 203 211 239 48 248 252 271 200 299 309 301 302 299 299 303 299 309 313 311 312 310 304 299 291 284 277 246 221 205 199 199 197 151 144 149 150 157
125 196 181 204 196 111 273 248 231 189 211 281 243 277 287 296 300 304 303 303 309 312 312 312 311 312 311 310 303 302 300 299 284 212 178 179 190 172 140 136 139 139 143 146
149 213 210 262 272 275 267 264 255 239 246 240 277 275 283 292 299 298 299 323 320 313 320 317 315 314 310 311 308 308 307 313 318 148 147 138 127 128 128 132 130 130 135 144
182 263 98 294 272 263 270 263 255 253 255 253 258 271 276 280 296 306 316 323 315 324 320 322 319 319 318 317 313 316 317 325 3 122 121 124 123 124 128 132 133 131 132 130
169 151 66 269 310 337 289 250 204 209 196 198 235 278 312 306 313 308 320 318 324 322 324 325 325 324 320 318 315 322 322 353 34 79 113 121 122 121 128 130 131 140 129 134
150 123 118 258 17 275 240 281 234 238 241 227 278 279 279 298 300 301 254 330 330 324 326 330 329 327 327 326 331 337 351 37 63 48 86 110 111 114 120 122 124 131 129 131
150 122 203 167 203 297 297 11 135 74 275 234 236 280 294 301 303 284 347 336 336 322 325 328 329 328 333 348 349 11 23 44 72 67 71 94 113 115 116 119 122 122 121 120
98 120 127 75 183 243 236 163 127 146 298 195 193 282 296 326 341 317 341 336 334 331 332 337 340 342 353 357 16 43 40 52 63 79 82 89 102 108 111 116 115 113 113 113
153 190 209 191 247 279 244 231 37 80 244 166 215 261 292 309 235 299 320 328 339 332 340 346 351 4 4 3 37 52 52 57 65 75 81 84 92 99 100 103 101 109 111 108
168 159 193 151 199 270 168 90 176 211 163 195 226 243 288 275 302 310 332 337 341 346 346 351 4 17 15 23 44 56 54 60 74 76 83 83 83 86 95 99 103 103 106 104
216 190 179 190 211 235 195 204 232 213 205 244 254 253 262 293 298 317 331 345 338 349 346 355 8 20 22 29 42 60 48 61 75 83 84 84 85 91 98 101 101 98 99 111
238 183 217 133 242 238 238 259 262 264 262 267 234 250 234 269 309 308 325 345 351 355 360 355 16 25 27 21 34 47 56 61 71 74 77 83 88 85 80 82 95 107 110 110
195 152 180 265 274 280 269 233 242 246 259 256 204 194 225 262 302 290 322 344 351 354 4 11 25 33 30 26 30 30 45 62 66 65 66 70 73 81 83 70 91 106 61 140
188 175 184 220 205 180 206 172 177 191 219 203 176 196 182 191 265 287 321 346 355 14 358 16 34 37 23 35 38 30 25 55 93 81 75 76 91 88 89 101 84 58 95 110